When you browse on this site, cookies collect data to enhance your experience and personalize the content and advertising you see.
Visit our Privacy Policy to learn more. By continuing to use the site, you agree to this use of cookies and data.
  • In Latvia
  • List of Countries
  • For 7 days
  • Water Temperature
  • Satellite Maps
  • Weather Map
  • Weather Widgets
  • user-avatar
    Login

    Hourly Weather Krizhopol

    Today, 20 June, Thursday

    Time Temperature Precipitation Wind Pressure Humidity
    00:00 +20°C° 0 mm 2 mps 736 mmHg 85%
    01:00 +19°C° 0 mm 2 mps 736 mmHg 86%
    02:00 +19°C° 0 mm 2 mps 736 mmHg 87%
    03:00 +19°C° 0 mm 2 mps 736 mmHg 89%
    04:00 +19°C° 0 mm 2 mps 736 mmHg 90%
    05:00 +19°C° 0 mm 2 mps 736 mmHg 91%
    06:00 +20°C° 0 mm 2 mps 736 mmHg 87%
    07:00 +23°C° 0 mm 2 mps 736 mmHg 82%
    08:00 +25°C° 0 mm 2 mps 736 mmHg 78%
    09:00 +26°C° 0 mm 2 mps 736 mmHg 73%
    10:00 +27°C° 0 mm 2 mps 736 mmHg 68%
    11:00 +28°C° 0 mm 2 mps 736 mmHg 63%
    12:00 +28°C° 0 mm 2 mps 736 mmHg 61%
    13:00 +29°C° 0 mm 2 mps 736 mmHg 60%
    14:00 +29°C° 0 mm 2 mps 736 mmHg 59%
    15:00 +29°C° 0 mm 2 mps 736 mmHg 60%
    16:00 +29°C° 0 mm 2 mps 735 mmHg 62%
    17:00 +28°C° 0 mm 2 mps 735 mmHg 63%
    18:00 +27°C° 0 mm 2 mps 735 mmHg 68%
    19:00 +25°C° 0 mm 2 mps 735 mmHg 73%
    20:00 +24°C° 0 mm 2 mps 735 mmHg 78%
    21:00 +23°C° 0 mm 2 mps 735 mmHg 80%
    22:00 +23°C° 0 mm 2 mps 736 mmHg 82%
    23:00 +21°C° 0 mm 2 mps 736 mmHg 84%

    Tomorrow, 21 June, Friday

    Time Temperature Precipitation Wind Pressure Humidity
    00:00 +20°C° 0 mm 2 mps 736 mmHg 85%
    01:00 +20°C° 0 mm 2 mps 736 mmHg 85%
    02:00 +20°C° 0 mm 2 mps 736 mmHg 85%
    03:00 +20°C° 0 mm 2 mps 736 mmHg 86%
    04:00 +20°C° 0 mm 2 mps 736 mmHg 87%
    05:00 +20°C° 0 mm 2 mps 736 mmHg 88%
    06:00 +21°C° 0 mm 2 mps 736 mmHg 84%
    07:00 +24°C° 0 mm 2 mps 737 mmHg 79%
    08:00 +26°C° 0 mm 3 mps 737 mmHg 75%
    09:00 +27°C° 0.2 mm 3 mps 737 mmHg 70%
    10:00 +28°C° 0.2 mm 3 mps 737 mmHg 65%
    11:00 +29°C° 0.2 mm 3 mps 737 mmHg 59%
    12:00 +29°C° 0.1 mm 3 mps 737 mmHg 58%
    13:00 +29°C° 0.1 mm 3 mps 737 mmHg 57%
    14:00 +30°C° 0.1 mm 3 mps 737 mmHg 55%
    15:00 +29°C° 0.2 mm 3 mps 736 mmHg 59%
    16:00 +28°C° 0.2 mm 3 mps 736 mmHg 63%
    17:00 +28°C° 0.2 mm 3 mps 736 mmHg 67%
    18:00 +26°C° 0.2 mm 2 mps 736 mmHg 71%
    19:00 +25°C° 0.2 mm 2 mps 736 mmHg 75%
    20:00 +24°C° 0.2 mm 1 mps 736 mmHg 78%
    21:00 +23°C° 0 mm 1 mps 736 mmHg 80%
    22:00 +22°C° 0 mm 1 mps 736 mmHg 81%
    23:00 +22°C° 0 mm 1 mps 736 mmHg 82%

    Day after tomorrow, 22 June, Saturday

    Time Temperature Precipitation Wind Pressure Humidity
    00:00 +22°C° 0 mm 1 mps 736 mmHg 83%
    01:00 +21°C° 0 mm 1 mps 736 mmHg 84%
    02:00 +21°C° 0 mm 1 mps 736 mmHg 85%
    03:00 +21°C° 0 mm 1 mps 736 mmHg 85%
    04:00 +21°C° 0 mm 1 mps 736 mmHg 85%
    05:00 +20°C° 0 mm 2 mps 736 mmHg 85%
    06:00 +23°C° 0 mm 1 mps 737 mmHg 79%
    07:00 +25°C° 0 mm 1 mps 737 mmHg 74%
    08:00 +26°C° 0 mm 1 mps 737 mmHg 68%
    09:00 +27°C° 0.5 mm 2 mps 737 mmHg 66%
    10:00 +28°C° 0.5 mm 3 mps 737 mmHg 63%
    11:00 +29°C° 0.5 mm 3 mps 738 mmHg 61%
    12:00 +29°C° 0.6 mm 3 mps 737 mmHg 61%
    13:00 +29°C° 0.6 mm 3 mps 737 mmHg 60%
    14:00 +29°C° 0.6 mm 3 mps 737 mmHg 60%
    15:00 +30°C° 0.1 mm 3 mps 737 mmHg 60%
    16:00 +30°C° 0.1 mm 3 mps 737 mmHg 60%
    17:00 +30°C° 0.1 mm 2 mps 737 mmHg 60%
    18:00 +28°C° 0.1 mm 2 mps 737 mmHg 63%
    19:00 +26°C° 0.1 mm 3 mps 737 mmHg 66%
    20:00 +24°C° 0.1 mm 3 mps 737 mmHg 69%
    21:00 +22°C° 0 mm 3 mps 737 mmHg 72%
    22:00 +23°C° 0 mm 2 mps 737 mmHg 74%
    23:00 +21°C° 0 mm 2 mps 737 mmHg 77%

    23 June, Sunday

    Time Temperature Precipitation Wind Pressure Humidity
    00:00 +21°C° 0 mm 2 mps 737 mmHg 76%
    01:00 +20°C° 0 mm 2 mps 737 mmHg 76%
    02:00 +20°C° 0 mm 2 mps 737 mmHg 75%
    03:00 +20°C° 0 mm 2 mps 737 mmHg 76%
    04:00 +20°C° 0 mm 2 mps 737 mmHg 77%
    05:00 +20°C° 0 mm 2 mps 737 mmHg 78%
    06:00 +21°C° 0 mm 2 mps 737 mmHg 75%
    07:00 +24°C° 0 mm 2 mps 737 mmHg 72%
    08:00 +26°C° 0 mm 2 mps 737 mmHg 68%
    09:00 +27°C° 0 mm 2 mps 738 mmHg 64%
    10:00 +28°C° 0 mm 3 mps 738 mmHg 59%
    11:00 +30°C° 0 mm 3 mps 738 mmHg 54%
    12:00 +30°C° 0 mm 3 mps 738 mmHg 52%
    13:00 +30°C° 0 mm 3 mps 738 mmHg 51%
    14:00 +30°C° 0 mm 3 mps 737 mmHg 50%
    15:00 +30°C° 0.1 mm 3 mps 737 mmHg 55%
    16:00 +29°C° 0.1 mm 3 mps 737 mmHg 60%
    17:00 +28°C° 0.1 mm 3 mps 737 mmHg 65%
    18:00 +26°C° 0.8 mm 3 mps 737 mmHg 71%
    19:00 +24°C° 0.8 mm 3 mps 737 mmHg 76%
    20:00 +21°C° 0.8 mm 3 mps 737 mmHg 82%
    21:00 +21°C° 0.3 mm 3 mps 737 mmHg 82%
    22:00 +21°C° 0.3 mm 3 mps 737 mmHg 82%
    23:00 +20°C° 0.3 mm 3 mps 737 mmHg 81%

    24 June, Monday

    Time Temperature Precipitation Wind Pressure Humidity
    00:00 +20°C° 0 mm 3 mps 737 mmHg 84%
    01:00 +20°C° 0 mm 3 mps 738 mmHg 87%
    02:00 +19°C° 0 mm 3 mps 738 mmHg 90%
    03:00 +19°C° 0 mm 3 mps 738 mmHg 90%
    04:00 +19°C° 0 mm 3 mps 737 mmHg 90%
    05:00 +18°C° 0 mm 3 mps 737 mmHg 89%
    06:00 +20°C° 0 mm 4 mps 738 mmHg 86%
    07:00 +21°C° 0 mm 4 mps 738 mmHg 82%
    08:00 +23°C° 0 mm 5 mps 738 mmHg 78%
    09:00 +25°C° 0.4 mm 5 mps 738 mmHg 75%
    10:00 +26°C° 0.4 mm 6 mps 739 mmHg 72%
    11:00 +27°C° 0.4 mm 6 mps 739 mmHg 69%
    12:00 +28°C° 0.2 mm 6 mps 739 mmHg 67%
    13:00 +28°C° 0.2 mm 6 mps 738 mmHg 65%
    14:00 +28°C° 0.2 mm 6 mps 738 mmHg 62%
    15:00 +28°C° 0.1 mm 5 mps 738 mmHg 65%
    16:00 +28°C° 0.1 mm 5 mps 738 mmHg 69%
    17:00 +27°C° 0.1 mm 4 mps 738 mmHg 72%
    18:00 +26°C° 0.4 mm 4 mps 738 mmHg 74%
    19:00 +25°C° 0.4 mm 4 mps 738 mmHg 77%
    20:00 +23°C° 0.4 mm 4 mps 739 mmHg 80%
    21:00 +23°C° 0 mm 4 mps 739 mmHg 81%
    22:00 +23°C° 0 mm 4 mps 739 mmHg 83%
    23:00 +22°C° 0 mm 3 mps 739 mmHg 85%

    25 June, Tuesday

    Time Temperature Precipitation Wind Pressure Humidity
    00:00 +22°C° 1 mm 3 mps 739 mmHg 87%
    01:00 +21°C° 1 mm 4 mps 739 mmHg 90%
    02:00 +21°C° 1 mm 4 mps 739 mmHg 92%
    03:00 +20°C° 0.8 mm 3 mps 739 mmHg 92%
    04:00 +20°C° 0.8 mm 3 mps 740 mmHg 92%
    05:00 +20°C° 0.8 mm 3 mps 740 mmHg 92%
    06:00 +21°C° 0.2 mm 3 mps 740 mmHg 89%
    07:00 +23°C° 0.2 mm 4 mps 740 mmHg 86%
    08:00 +25°C° 0.2 mm 4 mps 741 mmHg 83%
    09:00 +26°C° 1 mm 4 mps 741 mmHg 77%
    10:00 +28°C° 1 mm 4 mps 741 mmHg 71%
    11:00 +29°C° 1 mm 4 mps 741 mmHg 65%
    12:00 +29°C° 1 mm 4 mps 741 mmHg 65%
    13:00 +29°C° 1 mm 4 mps 741 mmHg 65%
    14:00 +29°C° 1 mm 3 mps 741 mmHg 65%
    15:00 +29°C° 0.5 mm 3 mps 740 mmHg 67%
    16:00 +29°C° 0.5 mm 3 mps 740 mmHg 69%
    17:00 +28°C° 0.5 mm 3 mps 740 mmHg 71%
    18:00 +27°C° 0 mm 3 mps 740 mmHg 75%
    19:00 +26°C° 0 mm 2 mps 740 mmHg 79%
    20:00 +24°C° 0 mm 2 mps 740 mmHg 82%
    21:00 +24°C° 0 mm 2 mps 740 mmHg 85%
    22:00 +23°C° 0 mm 2 mps 740 mmHg 87%
    23:00 +21°C° 0 mm 2 mps 741 mmHg 89%
    Show more